TimeMDT,TemperatureF,Dew PointF,Humidity,Sea Level PressureIn,VisibilityMPH,Wind Direction,Wind SpeedMPH,Gust SpeedMPH,PrecipitationIn,Events,Conditions,WindDirDegrees,DateUTC
12:51 AM,60.1,19.9,21,29.90,10.0,NW,10.4,-,N/A,,Clear,320,2013-03-29 06:51:00
1:51 AM,55.9,19.0,24,29.90,10.0,WNW,8.1,-,N/A,,Clear,300,2013-03-29 07:51:00
2:51 AM,50.0,18.0,28,29.91,10.0,Calm,Calm,-,N/A,,Clear,0,2013-03-29 08:51:00
3:51 AM,48.0,16.0,28,29.91,10.0,Calm,Calm,-,N/A,,Clear,0,2013-03-29 09:51:00
4:51 AM,50.0,17.1,27,29.91,10.0,Calm,Calm,-,N/A,,Clear,0,2013-03-29 10:51:00
5:51 AM,46.0,16.0,30,29.93,10.0,South,3.5,-,N/A,,Clear,190,2013-03-29 11:51:00
6:51 AM,44.1,15.1,31,29.96,10.0,WSW,5.8,-,N/A,,Clear,240,2013-03-29 12:51:00
7:51 AM,53.1,19.9,27,29.99,10.0,NE,3.5,-,N/A,,Clear,50,2013-03-29 13:51:00
8:51 AM,60.1,37.0,42,29.98,9.0,Calm,Calm,-,N/A,,Clear,0,2013-03-29 14:51:00
9:51 AM,64.9,36.0,34,29.98,10.0,Calm,Calm,-,N/A,,Clear,0,2013-03-29 15:51:00
10:51 AM,69.1,36.0,30,29.96,10.0,NNE,3.5,-,N/A,,Clear,20,2013-03-29 16:51:00
11:51 AM,75.0,28.0,18,29.95,10.0,Calm,Calm,-,N/A,,Clear,0,2013-03-29 17:51:00
12:51 PM,80.1,16.0,9,29.90,10.0,NNW,15.0,20.7,N/A,,Clear,340,2013-03-29 18:51:00
1:51 PM,80.1,18.0,10,29.89,10.0,Variable,6.9,-,N/A,,Clear,0,2013-03-29 19:51:00
2:51 PM,81.0,16.0,9,29.87,10.0,SSW,4.6,-,N/A,,Clear,210,2013-03-29 20:51:00
3:51 PM,82.0,15.1,8,29.85,10.0,North,4.6,-,N/A,,Clear,360,2013-03-29 21:51:00
4:51 PM,82.0,16.0,8,29.83,10.0,WSW,10.4,18.4,N/A,,Clear,240,2013-03-29 22:51:00
5:51 PM,82.0,15.1,8,29.84,10.0,SSE,5.8,-,N/A,,Clear,160,2013-03-29 23:51:00
6:51 PM,79.0,16.0,9,29.85,10.0,SW,9.2,-,N/A,,Clear,230,2013-03-30 00:51:00
7:51 PM,73.9,19.0,13,29.87,10.0,WSW,6.9,-,N/A,,Clear,250,2013-03-30 01:51:00
8:51 PM,64.9,19.0,17,29.89,10.0,SW,6.9,-,N/A,,Clear,220,2013-03-30 02:51:00
9:51 PM,63.0,7.0,11,29.90,10.0,West,6.9,-,N/A,,Clear,260,2013-03-30 03:51:00
10:51 PM,61.0,7.0,12,29.90,10.0,West,8.1,-,N/A,,Clear,280,2013-03-30 04:51:00
11:51 PM,57.9,9.0,14,29.89,10.0,WNW,8.1,-,N/A,,Clear,290,2013-03-30 05:51:00